Temp
9 9 9 11 10 11 12 13 13 12 12 12 12 11 11 11 11 11 11 10 10 10
8 9 9 11 11 11 10 11 12 11 11 11 11 11 11 10 10 10 10 10 10 9
8 9 9 9 9 9 11 10 10 10 11 11 11 10 10 10 10 10 10 9 9 9
8 9 10 9 9 10 9 9 10 9 10 10 10 10 10 10 9 10 10 9 9 9
8 8 8 8 9 9 9 9 9 9 9 9 9 9 9 9 10 10 9 9 9 9
8 7 5 5 7 8 9 7 8 7 8 8 8 8 9 9 9 9 8 8 8 8
4 4 4 4 5 5 5 6 6 8 8 7 8 8 8 8 8 8 8 7 7 7
4 5 4 5 5 5 6 7 7 7 7 7 7 8 7 7 7 7 7 7 7 6
5 5 5 5 6 6 6 6 6 6 6 7 7 7 7 6 6 6 6 5 5 5
5 5 6 6 6 6 6 6 6 5 5 6 6 6 5 6 5 5 4 4 4 4
5 5 5 5 5 5 5 5 5 4 4 4 4 4 4 4 4 4 4 3 3 3
5 5 4 5 5 4 4 4 4 3 3 4 4 3 2 2 2 2 2 1 1 1
4 4 4 4 4 3 3 3 3 3 3 2 2 2 2 2 0 0 1 0 -1 -3
4 4 4 4 3 3 3 3 3 2 1 1 0 0 0 0 -1 -0 -0 -0 -0 -0
Height
1441 1444 1446 1448 1452 1454 1456 1458 1461 1462 1463 1465 1465 1465 1465 1466 1467 1467 1469 1472 1474 1476
1438 1439 1440 1445 1448 1450 1452 1453 1455 1458 1458 1459 1459 1459 1460 1460 1461 1463 1462 1465 1469 1471
1434 1434 1437 1441 1443 1445 1447 1448 1451 1452 1453 1453 1454 1455 1455 1455 1457 1458 1460 1461 1465 1466
1431 1432 1434 1436 1438 1441 1443 1445 1447 1448 1448 1446 1447 1448 1450 1451 1453 1456 1457 1458 1461 1462
1430 1430 1430 1432 1434 1436 1439 1441 1442 1443 1443 1442 1442 1446 1446 1448 1449 1452 1454 1455 1457 1457
1431 1432 1435 1430 1429 1434 1439 1440 1439 1439 1439 1441 1443 1445 1446 1447 1449 1450 1450 1451 1451 1452
1438 1438 1436 1437 1436 1436 1438 1439 1439 1440 1440 1441 1445 1447 1447 1448 1448 1449 1450 1451 1451 1451
1443 1443 1443 1441 1442 1442 1442 1443 1443 1444 1445 1446 1447 1447 1448 1448 1448 1448 1448 1448 1448 1448
1446 1446 1445 1445 1445 1444 1444 1444 1444 1444 1444 1445 1445 1446 1446 1446 1446 1446 1446 1445 1445 1444
1446 1446 1445 1445 1445 1444 1444 1444 1444 1444 1444 1444 1444 1444 1444 1444 1443 1443 1442 1442 1441 1441
1446 1446 1445 1445 1445 1445 1444 1444 1444 1444 1444 1443 1443 1443 1442 1442 1442 1442 1440 1439 1438 1437
1447 1446 1446 1445 1445 1445 1444 1444 1444 1444 1443 1443 1443 1443 1442 1441 1439 1437 1437 1436 1435 1433
1446 1446 1445 1445 1445 1445 1444 1444 1444 1443 1442 1441 1440 1440 1439 1437 1436 1436 1434 1432 1431 1429
1444 1444 1444 1444 1444 1444 1444 1442 1441 1440 1439 1439 1438 1437 1436 1435 1433 1433 1430 1429 1426 1424
Wind_Speed
25 27 27 28 26 24 26 26 25 24 23 23 25 26 23 25 25 33 30 28 28 25
21 21 23 26 24 23 20 21 20 23 25 25 26 20 22 20 28 31 28 24 25 23
20 22 21 19 22 22 22 23 26 26 27 25 21 21 19 17 17 22 22 24 22 22
15 17 20 25 25 25 26 24 22 22 17 21 31 20 17 15 13 13 13 17 20 23
8 4 9 21 18 17 18 16 15 20 18 14 12 10 11 12 14 15 16 19 20 23
8 14 15 19 22 17 15 13 11 7 7 7 6 6 9 8 11 12 11 12 11 13
16 15 16 14 13 13 9 8 8 4 2 2 4 4 3 4 4 5 6 7 9 11
9 8 10 8 5 9 6 7 6 6 5 4 3 2 2 3 4 6 7 9 10 12
5 5 5 6 6 6 5 4 4 3 2 0 1 2 3 3 4 5 6 8 9 10
4 4 4 4 4 3 4 4 3 3 2 2 3 3 3 5 6 7 8 9 10 10
3 3 4 5 4 4 4 3 3 2 2 3 5 6 7 7 7 6 7 8 9 9
1 2 2 2 2 2 2 2 2 3 3 5 5 6 5 6 5 7 8 9 9 11
2 1 1 1 1 1 2 2 2 3 4 4 6 6 8 9 7 8 10 10 10 10
4 4 4 3 3 2 2 3 4 5 6 6 6 8 9 10 7 10 11 13 14 16
Wind_Direction
226 225 230 238 232 241 246 248 248 247 249 257 264 264 256 257 257 251 249 251 255 251
226 226 230 235 240 240 247 253 254 249 252 260 261 253 256 253 255 244 241 241 242 243
221 224 226 232 236 229 232 236 244 250 257 254 247 249 244 249 244 249 249 247 236 245
234 235 240 241 235 234 244 246 251 251 249 233 227 234 227 221 220 225 230 227 243 250
124 129 282 196 208 211 222 209 226 213 221 219 217 212 239 239 207 211 230 245 244 243
139 115 104 100 125 190 208 155 144 137 128 132 153 180 198 192 222 226 225 237 239 246
79 84 79 75 85 95 94 113 114 139 154 154 203 180 190 218 236 251 264 272 281 285
79 74 85 94 102 111 137 131 128 135 151 171 195 220 256 270 280 285 289 290 291 291
149 142 133 115 112 109 109 100 103 108 114 98 347 340 314 311 312 313 308 305 303 306
86 92 96 95 94 101 97 100 95 85 56 12 7 357 338 331 333 328 328 326 326 322
68 80 81 77 75 81 84 82 73 57 19 355 359 2 354 347 332 323 324 323 318 313
77 87 90 93 91 88 83 57 32 20 353 332 336 341 349 341 350 349 343 336 329 326
251 262 300 346 349 7 11 0 343 330 330 331 334 346 356 1 2 347 346 343 338 323
268 273 279 286 293 297 302 319 333 339 338 334 330 330 346 359 358 345 344 337 333 326